owner,sensor,date,latitude,longitude,sea_surface_height_above_sea_level,qcFlag 
TCOON,ioos:station:TCOON:013:1,2017-08-09T15:36:00Z,27.4847,-97.3181,0.68,1111122 
TCOON,ioos:station:TCOON:013:1,2017-08-09T16:18:00Z,27.4847,-97.3181,0.69,1111122 
TCOON,ioos:station:TCOON:013:1,2017-08-09T22:42:00Z,27.4847,-97.3181,0.701,1111122 
TCOON,ioos:station:TCOON:013:1,2017-08-09T23:18:00Z,27.4847,-97.3181,0.691,1111122 
TCOON,ioos:station:TCOON:013:1,2017-08-10T00:18:00Z,27.4847,-97.3181,0.702,1111122 
TCOON,ioos:station:TCOON:013:1,2017-08-10T01:18:00Z,27.4847,-97.3181,0.699,1111122 
TCOON,ioos:station:TCOON:013:1,2017-08-10T02:18:00Z,27.4847,-97.3181,0.701,1111122 
TCOON,ioos:station:TCOON:013:1,2017-08-10T03:18:00Z,27.4847,-97.3181,0.703,1111122 
TCOON,ioos:station:TCOON:013:1,2017-08-10T04:18:00Z,27.4847,-97.3181,0.704,1111122 
TCOON,ioos:station:TCOON:013:1,2017-08-10T05:18:00Z,27.4847,-97.3181,0.708,1111122 
TCOON,ioos:station:TCOON:013:1,2017-08-10T06:18:00Z,27.4847,-97.3181,0.708,1111122 
TCOON,ioos:station:TCOON:013:1,2017-08-10T07:18:00Z,27.4847,-97.3181,0.708,1111122 
TCOON,ioos:station:TCOON:013:1,2017-08-10T08:18:00Z,27.4847,-97.3181,0.708,1111122 
TCOON,ioos:station:TCOON:013:1,2017-08-10T09:18:00Z,27.4847,-97.3181,0.706,1111122 
TCOON,ioos:station:TCOON:013:1,2017-08-10T10:18:00Z,27.4847,-97.3181,0.706,1111122 
TCOON,ioos:station:TCOON:013:1,2017-08-10T11:18:00Z,27.4847,-97.3181,0.704,1111122 
TCOON,ioos:station:TCOON:013:1,2017-08-10T12:18:00Z,27.4847,-97.3181,0.703,1111122 
TCOON,ioos:station:TCOON:013:1,2017-08-10T13:18:00Z,27.4847,-97.3181,0.7,1111122 
TCOON,ioos:station:TCOON:013:1,2017-08-10T14:18:00Z,27.4847,-97.3181,0.695,1111122 
TCOON,ioos:station:TCOON:013:1,2017-08-10T15:18:00Z,27.4847,-97.3181,0.698,1111122 
TCOON,ioos:station:TCOON:013:1,2017-08-10T16:18:00Z,27.4847,-97.3181,0.697,1111122 
TCOON,ioos:station:TCOON:013:1,2017-08-10T17:18:00Z,27.4847,-97.3181,0.709,1111122 
TCOON,ioos:station:TCOON:013:1,2017-08-10T18:18:00Z,27.4847,-97.3181,0.708,1111122 
TCOON,ioos:station:TCOON:013:1,2017-08-10T19:18:00Z,27.4847,-97.3181,0.71,1111122 
TCOON,ioos:station:TCOON:013:1,2017-08-10T20:18:00Z,27.4847,-97.3181,0.711,1111122 
TCOON,ioos:station:TCOON:013:1,2017-08-10T21:18:00Z,27.4847,-97.3181,0.713,1111122 
TCOON,ioos:station:TCOON:013:1,2017-08-10T22:18:00Z,27.4847,-97.3181,0.699,1111122 
TCOON,ioos:station:TCOON:013:1,2017-08-10T23:18:00Z,27.4847,-97.3181,0.736,1111122 
TCOON,ioos:station:TCOON:013:1,2017-08-11T00:18:00Z,27.4847,-97.3181,0.714,1111122 
TCOON,ioos:station:TCOON:013:1,2017-08-11T01:18:00Z,27.4847,-97.3181,0.728,1111122 
TCOON,ioos:station:TCOON:013:1,2017-08-11T02:18:00Z,27.4847,-97.3181,0.729,1111122 
TCOON,ioos:station:TCOON:013:1,2017-08-11T03:18:00Z,27.4847,-97.3181,0.731,1111122 
TCOON,ioos:station:TCOON:013:1,2017-08-11T04:18:00Z,27.4847,-97.3181,0.737,1111122 
TCOON,ioos:station:TCOON:013:1,2017-08-11T05:18:00Z,27.4847,-97.3181,0.732,1111122 
TCOON,ioos:station:TCOON:013:1,2017-08-11T06:18:00Z,27.4847,-97.3181,0.727,1111122 
TCOON,ioos:station:TCOON:013:1,2017-08-11T07:18:00Z,27.4847,-97.3181,0.719,1111122 
TCOON,ioos:station:TCOON:013:1,2017-08-11T08:18:00Z,27.4847,-97.3181,0.708,1111122 
TCOON,ioos:station:TCOON:013:1,2017-08-11T09:18:00Z,27.4847,-97.3181,0.702,1111122 
TCOON,ioos:station:TCOON:013:1,2017-08-11T10:18:00Z,27.4847,-97.3181,0.698,1111122 
TCOON,ioos:station:TCOON:013:1,2017-08-11T11:18:00Z,27.4847,-97.3181,0.698,1111122 
TCOON,ioos:station:TCOON:013:1,2017-08-11T12:18:00Z,27.4847,-97.3181,0.698,1111122 
TCOON,ioos:station:TCOON:013:1,2017-08-11T13:18:00Z,27.4847,-97.3181,0.698,1111122 
TCOON,ioos:station:TCOON:013:1,2017-08-11T14:18:00Z,27.4847,-97.3181,0.696,1111122 
TCOON,ioos:station:TCOON:013:1,2017-08-11T15:18:00Z,27.4847,-97.3181,0.699,1111122 
TCOON,ioos:station:TCOON:013:1,2017-08-11T16:18:00Z,27.4847,-97.3181,0.698,1111122 
TCOON,ioos:station:TCOON:013:1,2017-08-11T17:18:00Z,27.4847,-97.3181,0.702,1111122 
TCOON,ioos:station:TCOON:013:1,2017-08-11T18:18:00Z,27.4847,-97.3181,0.703,1111122 
TCOON,ioos:station:TCOON:013:1,2017-08-11T19:18:00Z,27.4847,-97.3181,0.706,1111122 
TCOON,ioos:station:TCOON:013:1,2017-08-11T20:24:00Z,27.4847,-97.3181,0.678,1111122 
TCOON,ioos:station:TCOON:013:1,2017-08-11T21:18:00Z,27.4847,-97.3181,0.704,1111122 
TCOON,ioos:station:TCOON:013:1,2017-08-11T22:18:00Z,27.4847,-97.3181,0.696,1111122 
TCOON,ioos:station:TCOON:013:1,2017-08-11T23:18:00Z,27.4847,-97.3181,0.692,1111122 
TCOON,ioos:station:TCOON:013:1,2017-08-12T00:18:00Z,27.4847,-97.3181,0.687,1111122 
TCOON,ioos:station:TCOON:013:1,2017-08-12T01:18:00Z,27.4847,-97.3181,0.682,1111122 
TCOON,ioos:station:TCOON:013:1,2017-08-12T02:18:00Z,27.4847,-97.3181,0.684,1111122 
TCOON,ioos:station:TCOON:013:1,2017-08-12T03:18:00Z,27.4847,-97.3181,0.682,1111122 
TCOON,ioos:station:TCOON:013:1,2017-08-12T04:18:00Z,27.4847,-97.3181,0.683,1111122 
TCOON,ioos:station:TCOON:013:1,2017-08-12T05:18:00Z,27.4847,-97.3181,0.687,1111122 
TCOON,ioos:station:TCOON:013:1,2017-08-12T06:18:00Z,27.4847,-97.3181,0.689,1111122 
TCOON,ioos:station:TCOON:013:1,2017-08-12T07:18:00Z,27.4847,-97.3181,0.69,1111122 
TCOON,ioos:station:TCOON:013:1,2017-08-12T08:18:00Z,27.4847,-97.3181,0.691,1111122 
TCOON,ioos:station:TCOON:013:1,2017-08-12T09:18:00Z,27.4847,-97.3181,0.693,1111122 
TCOON,ioos:station:TCOON:013:1,2017-08-12T10:18:00Z,27.4847,-97.3181,0.692,1111122 
TCOON,ioos:station:TCOON:013:1,2017-08-12T11:18:00Z,27.4847,-97.3181,0.69,1111122 
TCOON,ioos:station:TCOON:013:1,2017-08-12T12:18:00Z,27.4847,-97.3181,0.692,1111122 
TCOON,ioos:station:TCOON:013:1,2017-08-12T13:18:00Z,27.4847,-97.3181,0.692,1111122 
TCOON,ioos:station:TCOON:013:1,2017-08-12T14:18:00Z,27.4847,-97.3181,0.689,1111122 
TCOON,ioos:station:TCOON:013:1,2017-08-12T15:18:00Z,27.4847,-97.3181,0.689,1111122 
TCOON,ioos:station:TCOON:013:1,2017-08-12T16:18:00Z,27.4847,-97.3181,0.686,1111122 
TCOON,ioos:station:TCOON:013:1,2017-08-12T17:18:00Z,27.4847,-97.3181,0.683,1111122 
TCOON,ioos:station:TCOON:013:1,2017-08-12T18:18:00Z,27.4847,-97.3181,0.68,1111122 
TCOON,ioos:station:TCOON:013:1,2017-08-12T19:18:00Z,27.4847,-97.3181,0.676,1111122 
TCOON,ioos:station:TCOON:013:1,2017-08-12T20:18:00Z,27.4847,-97.3181,0.676,1111122 
TCOON,ioos:station:TCOON:013:1,2017-08-12T21:18:00Z,27.4847,-97.3181,0.672,1111122 
TCOON,ioos:station:TCOON:013:1,2017-08-12T22:18:00Z,27.4847,-97.3181,0.671,1111122 
TCOON,ioos:station:TCOON:013:1,2017-08-12T23:18:00Z,27.4847,-97.3181,0.668,1111122 
TCOON,ioos:station:TCOON:013:1,2017-08-13T00:18:00Z,27.4847,-97.3181,0.664,1111122 
TCOON,ioos:station:TCOON:013:1,2017-08-13T01:18:00Z,27.4847,-97.3181,0.66,1111122 
TCOON,ioos:station:TCOON:013:1,2017-08-13T02:18:00Z,27.4847,-97.3181,0.658,1111122 
TCOON,ioos:station:TCOON:013:1,2017-08-13T03:18:00Z,27.4847,-97.3181,0.656,1111122 
TCOON,ioos:station:TCOON:013:1,2017-08-13T04:18:00Z,27.4847,-97.3181,0.657,1111122 
TCOON,ioos:station:TCOON:013:1,2017-08-13T05:18:00Z,27.4847,-97.3181,0.658,1111122 
TCOON,ioos:station:TCOON:013:1,2017-08-13T06:18:00Z,27.4847,-97.3181,0.66,1111122 
TCOON,ioos:station:TCOON:013:1,2017-08-13T07:18:00Z,27.4847,-97.3181,0.663,1111122 
TCOON,ioos:station:TCOON:013:1,2017-08-13T08:18:00Z,27.4847,-97.3181,0.664,1111122 
TCOON,ioos:station:TCOON:013:1,2017-08-13T09:18:00Z,27.4847,-97.3181,0.665,1111122 
TCOON,ioos:station:TCOON:013:1,2017-08-13T10:18:00Z,27.4847,-97.3181,0.663,1111122 
TCOON,ioos:station:TCOON:013:1,2017-08-13T11:18:00Z,27.4847,-97.3181,0.664,1111122 
TCOON,ioos:station:TCOON:013:1,2017-08-13T12:18:00Z,27.4847,-97.3181,0.665,1111122 
TCOON,ioos:station:TCOON:013:1,2017-08-13T13:18:00Z,27.4847,-97.3181,0.664,1111122 
TCOON,ioos:station:TCOON:013:1,2017-08-13T14:18:00Z,27.4847,-97.3181,0.668,1111122 
TCOON,ioos:station:TCOON:013:1,2017-08-13T15:18:00Z,27.4847,-97.3181,0.666,1111122 
TCOON,ioos:station:TCOON:013:1,2017-08-13T16:18:00Z,27.4847,-97.3181,0.664,1111122 
TCOON,ioos:station:TCOON:013:1,2017-08-13T17:18:00Z,27.4847,-97.3181,0.661,1111122 
TCOON,ioos:station:TCOON:013:1,2017-08-13T18:18:00Z,27.4847,-97.3181,0.658,1111122 
TCOON,ioos:station:TCOON:013:1,2017-08-13T19:18:00Z,27.4847,-97.3181,0.652,1111122 
TCOON,ioos:station:TCOON:013:1,2017-08-13T20:18:00Z,27.4847,-97.3181,0.651,1111122 
TCOON,ioos:station:TCOON:013:1,2017-08-13T21:18:00Z,27.4847,-97.3181,0.649,1111122 
TCOON,ioos:station:TCOON:013:1,2017-08-13T22:18:00Z,27.4847,-97.3181,0.645,1111122 
TCOON,ioos:station:TCOON:013:1,2017-08-13T23:18:00Z,27.4847,-97.3181,0.64,1111122 
TCOON,ioos:station:TCOON:013:1,2017-08-14T00:18:00Z,27.4847,-97.3181,0.635,1111122 
TCOON,ioos:station:TCOON:013:1,2017-08-14T01:18:00Z,27.4847,-97.3181,0.631,1111122 
TCOON,ioos:station:TCOON:013:1,2017-08-14T02:18:00Z,27.4847,-97.3181,0.627,1111122 
TCOON,ioos:station:TCOON:013:1,2017-08-14T03:18:00Z,27.4847,-97.3181,0.625,1111122 
TCOON,ioos:station:TCOON:013:1,2017-08-14T04:18:00Z,27.4847,-97.3181,0.62,1111122 
TCOON,ioos:station:TCOON:013:1,2017-08-14T05:18:00Z,27.4847,-97.3181,0.618,1111122 
TCOON,ioos:station:TCOON:013:1,2017-08-14T06:18:00Z,27.4847,-97.3181,0.616,1111122 
TCOON,ioos:station:TCOON:013:1,2017-08-14T07:18:00Z,27.4847,-97.3181,0.62,1111122 
TCOON,ioos:station:TCOON:013:1,2017-08-14T08:18:00Z,27.4847,-97.3181,0.621,1111122 
TCOON,ioos:station:TCOON:013:1,2017-08-14T09:18:00Z,27.4847,-97.3181,0.622,1111122 
TCOON,ioos:station:TCOON:013:1,2017-08-14T10:18:00Z,27.4847,-97.3181,0.623,1111122 
TCOON,ioos:station:TCOON:013:1,2017-08-14T11:18:00Z,27.4847,-97.3181,0.622,1111122 
TCOON,ioos:station:TCOON:013:1,2017-08-14T12:18:00Z,27.4847,-97.3181,0.622,1111122 
TCOON,ioos:station:TCOON:013:1,2017-08-14T13:18:00Z,27.4847,-97.3181,0.626,1111122 
TCOON,ioos:station:TCOON:013:1,2017-08-14T14:18:00Z,27.4847,-97.3181,0.63,1111122 
TCOON,ioos:station:TCOON:013:1,2017-08-14T15:18:00Z,27.4847,-97.3181,0.629,1111122 
TCOON,ioos:station:TCOON:013:1,2017-08-14T16:18:00Z,27.4847,-97.3181,0.628,1111122 
TCOON,ioos:station:TCOON:013:1,2017-08-14T17:18:00Z,27.4847,-97.3181,0.627,1111122 
TCOON,ioos:station:TCOON:013:1,2017-08-14T18:18:00Z,27.4847,-97.3181,0.626,1111122 
TCOON,ioos:station:TCOON:013:1,2017-08-14T19:18:00Z,27.4847,-97.3181,0.62,1111122 
TCOON,ioos:station:TCOON:013:1,2017-08-14T20:18:00Z,27.4847,-97.3181,0.618,1111122 
TCOON,ioos:station:TCOON:013:1,2017-08-14T21:18:00Z,27.4847,-97.3181,0.617,1111122 
TCOON,ioos:station:TCOON:013:1,2017-08-14T22:18:00Z,27.4847,-97.3181,0.609,1111122 
TCOON,ioos:station:TCOON:013:1,2017-08-14T23:18:00Z,27.4847,-97.3181,0.605,1111122 
TCOON,ioos:station:TCOON:013:1,2017-08-15T00:18:00Z,27.4847,-97.3181,0.598,1111122 
TCOON,ioos:station:TCOON:013:1,2017-08-15T01:18:00Z,27.4847,-97.3181,0.598,1111122 
TCOON,ioos:station:TCOON:013:1,2017-08-15T02:18:00Z,27.4847,-97.3181,0.591,1111122 
TCOON,ioos:station:TCOON:013:1,2017-08-15T03:18:00Z,27.4847,-97.3181,0.586,1111122 
TCOON,ioos:station:TCOON:013:1,2017-08-15T04:18:00Z,27.4847,-97.3181,0.583,1111122 
TCOON,ioos:station:TCOON:013:1,2017-08-15T05:18:00Z,27.4847,-97.3181,0.584,1111122 
TCOON,ioos:station:TCOON:013:1,2017-08-15T06:18:00Z,27.4847,-97.3181,0.585,1111122 
TCOON,ioos:station:TCOON:013:1,2017-08-15T07:18:00Z,27.4847,-97.3181,0.587,1111122 
TCOON,ioos:station:TCOON:013:1,2017-08-15T08:18:00Z,27.4847,-97.3181,0.588,1111122 
TCOON,ioos:station:TCOON:013:1,2017-08-15T09:18:00Z,27.4847,-97.3181,0.587,1111122 
TCOON,ioos:station:TCOON:013:1,2017-08-15T10:18:00Z,27.4847,-97.3181,0.587,1111122 
TCOON,ioos:station:TCOON:013:1,2017-08-15T11:18:00Z,27.4847,-97.3181,0.591,1111122 
TCOON,ioos:station:TCOON:013:1,2017-08-15T12:18:00Z,27.4847,-97.3181,0.596,1111122 
TCOON,ioos:station:TCOON:013:1,2017-08-15T13:18:00Z,27.4847,-97.3181,0.603,1111122 
TCOON,ioos:station:TCOON:013:1,2017-08-15T14:18:00Z,27.4847,-97.3181,0.607,1111122 
TCOON,ioos:station:TCOON:013:1,2017-08-15T15:18:00Z,27.4847,-97.3181,0.611,1111122 
TCOON,ioos:station:TCOON:013:1,2017-08-15T16:18:00Z,27.4847,-97.3181,0.613,1111122 
TCOON,ioos:station:TCOON:013:1,2017-08-15T19:18:00Z,27.4847,-97.3181,0.615,1111122 
TCOON,ioos:station:TCOON:013:1,2017-08-15T20:18:00Z,27.4847,-97.3181,0.614,1111122 
TCOON,ioos:station:TCOON:013:1,2017-08-15T21:30:00Z,27.4847,-97.3181,0.608,1111122 
TCOON,ioos:station:TCOON:013:1,2017-08-15T22:36:00Z,27.4847,-97.3181,0.602,1111122 
TCOON,ioos:station:TCOON:013:1,2017-08-15T23:18:00Z,27.4847,-97.3181,0.599,1111122 
TCOON,ioos:station:TCOON:013:1,2017-08-16T00:18:00Z,27.4847,-97.3181,0.6,1111122 
TCOON,ioos:station:TCOON:013:1,2017-08-16T01:18:00Z,27.4847,-97.3181,0.591,1111122 
TCOON,ioos:station:TCOON:013:1,2017-08-16T02:18:00Z,27.4847,-97.3181,0.583,1111122 
TCOON,ioos:station:TCOON:013:1,2017-08-16T03:18:00Z,27.4847,-97.3181,0.579,1111122 
TCOON,ioos:station:TCOON:013:1,2017-08-16T04:18:00Z,27.4847,-97.3181,0.577,1111122 
TCOON,ioos:station:TCOON:013:1,2017-08-16T05:18:00Z,27.4847,-97.3181,0.579,1111122 
TCOON,ioos:station:TCOON:013:1,2017-08-16T06:18:00Z,27.4847,-97.3181,0.576,1111122 
TCOON,ioos:station:TCOON:013:1,2017-08-16T07:18:00Z,27.4847,-97.3181,0.577,1111122 
TCOON,ioos:station:TCOON:013:1,2017-08-16T08:18:00Z,27.4847,-97.3181,0.579,1111122 
TCOON,ioos:station:TCOON:013:1,2017-08-16T09:18:00Z,27.4847,-97.3181,0.58,1111122 
TCOON,ioos:station:TCOON:013:1,2017-08-16T10:18:00Z,27.4847,-97.3181,0.578,1111122 
TCOON,ioos:station:TCOON:013:1,2017-08-16T11:18:00Z,27.4847,-97.3181,0.584,1111122 
TCOON,ioos:station:TCOON:013:1,2017-08-16T12:18:00Z,27.4847,-97.3181,0.587,1111122 
TCOON,ioos:station:TCOON:013:1,2017-08-16T13:18:00Z,27.4847,-97.3181,0.595,1111122 
TCOON,ioos:station:TCOON:013:1,2017-08-16T14:18:00Z,27.4847,-97.3181,0.604,1111122 
TCOON,ioos:station:TCOON:013:1,2017-08-16T15:18:00Z,27.4847,-97.3181,0.611,1111122 
TCOON,ioos:station:TCOON:013:1,2017-08-16T16:18:00Z,27.4847,-97.3181,0.613,1111122 
TCOON,ioos:station:TCOON:013:1,2017-08-16T17:24:00Z,27.4847,-97.3181,0.617,1111122 
TCOON,ioos:station:TCOON:013:1,2017-08-16T20:18:00Z,27.4847,-97.3181,0.612,1111122 
TCOON,ioos:station:TCOON:013:1,2017-08-16T21:18:00Z,27.4847,-97.3181,0.606,1111122 
TCOON,ioos:station:TCOON:013:1,2017-08-16T22:18:00Z,27.4847,-97.3181,0.598,1111122 
TCOON,ioos:station:TCOON:013:1,2017-08-17T04:18:00Z,27.4847,-97.3181,0.564,1111122 
TCOON,ioos:station:TCOON:013:1,2017-08-17T05:18:00Z,27.4847,-97.3181,0.566,1111122 
TCOON,ioos:station:TCOON:013:1,2017-08-17T06:18:00Z,27.4847,-97.3181,0.568,1111122 
TCOON,ioos:station:TCOON:013:1,2017-08-17T07:18:00Z,27.4847,-97.3181,0.567,1111122 
TCOON,ioos:station:TCOON:013:1,2017-08-17T08:18:00Z,27.4847,-97.3181,0.565,1111122 
TCOON,ioos:station:TCOON:013:1,2017-08-17T09:18:00Z,27.4847,-97.3181,0.565,1111122 
TCOON,ioos:station:TCOON:013:1,2017-08-17T10:18:00Z,27.4847,-97.3181,0.566,1111122 
TCOON,ioos:station:TCOON:013:1,2017-08-17T11:18:00Z,27.4847,-97.3181,0.555,1111122 
TCOON,ioos:station:TCOON:013:1,2017-08-17T12:18:00Z,27.4847,-97.3181,0.572,1111122 
TCOON,ioos:station:TCOON:013:1,2017-08-17T13:18:00Z,27.4847,-97.3181,0.576,1111122 
TCOON,ioos:station:TCOON:013:1,2017-08-17T14:18:00Z,27.4847,-97.3181,0.584,1111122 
TCOON,ioos:station:TCOON:013:1,2017-08-17T15:18:00Z,27.4847,-97.3181,0.592,1111122 
TCOON,ioos:station:TCOON:013:1,2017-08-17T16:18:00Z,27.4847,-97.3181,0.594,1111122 
TCOON,ioos:station:TCOON:013:1,2017-08-17T17:18:00Z,27.4847,-97.3181,0.601,1111122 
TCOON,ioos:station:TCOON:013:1,2017-08-17T18:18:00Z,27.4847,-97.3181,0.602,1111122 
TCOON,ioos:station:TCOON:013:1,2017-08-17T19:18:00Z,27.4847,-97.3181,0.602,1111122 
TCOON,ioos:station:TCOON:013:1,2017-08-17T20:18:00Z,27.4847,-97.3181,0.602,1111122 
TCOON,ioos:station:TCOON:013:1,2017-08-17T21:18:00Z,27.4847,-97.3181,0.598,1111122 
TCOON,ioos:station:TCOON:013:1,2017-08-17T22:18:00Z,27.4847,-97.3181,0.59,1111122 
TCOON,ioos:station:TCOON:013:1,2017-08-18T00:18:00Z,27.4847,-97.3181,0.578,1111122 
TCOON,ioos:station:TCOON:013:1,2017-08-18T01:18:00Z,27.4847,-97.3181,0.568,1111122 
TCOON,ioos:station:TCOON:013:1,2017-08-18T02:18:00Z,27.4847,-97.3181,0.557,1111122 
TCOON,ioos:station:TCOON:013:1,2017-08-18T03:18:00Z,27.4847,-97.3181,0.55,1111122 
TCOON,ioos:station:TCOON:013:1,2017-08-18T04:18:00Z,27.4847,-97.3181,0.55,1111122 
TCOON,ioos:station:TCOON:013:1,2017-08-18T05:18:00Z,27.4847,-97.3181,0.551,1111122 
TCOON,ioos:station:TCOON:013:1,2017-08-18T06:18:00Z,27.4847,-97.3181,0.555,1111122 
TCOON,ioos:station:TCOON:013:1,2017-08-18T07:18:00Z,27.4847,-97.3181,0.552,1111122 
TCOON,ioos:station:TCOON:013:1,2017-08-18T08:18:00Z,27.4847,-97.3181,0.55,1111122 
TCOON,ioos:station:TCOON:013:1,2017-08-18T09:18:00Z,27.4847,-97.3181,0.551,1111122 
TCOON,ioos:station:TCOON:013:1,2017-08-18T10:18:00Z,27.4847,-97.3181,0.55,1111122 
TCOON,ioos:station:TCOON:013:1,2017-08-18T11:24:00Z,27.4847,-97.3181,0.551,1111122 
TCOON,ioos:station:TCOON:013:1,2017-08-18T12:18:00Z,27.4847,-97.3181,0.555,1111122 
TCOON,ioos:station:TCOON:013:1,2017-08-18T13:18:00Z,27.4847,-97.3181,0.564,1111122 
TCOON,ioos:station:TCOON:013:1,2017-08-18T14:18:00Z,27.4847,-97.3181,0.575,1111122 
TCOON,ioos:station:TCOON:013:1,2017-08-18T15:18:00Z,27.4847,-97.3181,0.586,1111122 
TCOON,ioos:station:TCOON:013:1,2017-08-18T16:18:00Z,27.4847,-97.3181,0.593,1111122 
TCOON,ioos:station:TCOON:013:1,2017-08-18T17:18:00Z,27.4847,-97.3181,0.6,1111122 
TCOON,ioos:station:TCOON:013:1,2017-08-18T18:18:00Z,27.4847,-97.3181,0.604,1111122 
TCOON,ioos:station:TCOON:013:1,2017-08-18T19:18:00Z,27.4847,-97.3181,0.607,1111122 
TCOON,ioos:station:TCOON:013:1,2017-08-18T20:48:00Z,27.4847,-97.3181,0.607,1111122 
TCOON,ioos:station:TCOON:013:1,2017-08-18T21:48:00Z,27.4847,-97.3181,0.601,1111122 
TCOON,ioos:station:TCOON:013:1,2017-08-18T22:48:00Z,27.4847,-97.3181,0.602,1111122 
TCOON,ioos:station:TCOON:013:1,2017-08-18T23:48:00Z,27.4847,-97.3181,0.6,1111122 
TCOON,ioos:station:TCOON:013:1,2017-08-19T00:18:00Z,27.4847,-97.3181,0.597,1111122 
TCOON,ioos:station:TCOON:013:1,2017-08-19T01:18:00Z,27.4847,-97.3181,0.587,1111122 
TCOON,ioos:station:TCOON:013:1,2017-08-19T02:18:00Z,27.4847,-97.3181,0.578,1111122 
TCOON,ioos:station:TCOON:013:1,2017-08-19T03:18:00Z,27.4847,-97.3181,0.569,1111122 
TCOON,ioos:station:TCOON:013:1,2017-08-19T04:18:00Z,27.4847,-97.3181,0.562,1111122 
TCOON,ioos:station:TCOON:013:1,2017-08-19T05:18:00Z,27.4847,-97.3181,0.556,1111122 
TCOON,ioos:station:TCOON:013:1,2017-08-19T06:18:00Z,27.4847,-97.3181,0.557,1111122 
TCOON,ioos:station:TCOON:013:1,2017-08-19T07:18:00Z,27.4847,-97.3181,0.556,1111122 
TCOON,ioos:station:TCOON:013:1,2017-08-19T08:18:00Z,27.4847,-97.3181,0.558,1111122 
TCOON,ioos:station:TCOON:013:1,2017-08-19T09:18:00Z,27.4847,-97.3181,0.555,1111122 
TCOON,ioos:station:TCOON:013:1,2017-08-19T10:18:00Z,27.4847,-97.3181,0.555,1111122 
TCOON,ioos:station:TCOON:013:1,2017-08-19T11:18:00Z,27.4847,-97.3181,0.561,1111122 
TCOON,ioos:station:TCOON:013:1,2017-08-19T12:18:00Z,27.4847,-97.3181,0.565,1111122 
TCOON,ioos:station:TCOON:013:1,2017-08-19T13:18:00Z,27.4847,-97.3181,0.572,1111122 
TCOON,ioos:station:TCOON:013:1,2017-08-19T14:18:00Z,27.4847,-97.3181,0.58,1111122 
TCOON,ioos:station:TCOON:013:1,2017-08-19T15:18:00Z,27.4847,-97.3181,0.592,1111122 
TCOON,ioos:station:TCOON:013:1,2017-08-19T16:18:00Z,27.4847,-97.3181,0.601,1111122 
TCOON,ioos:station:TCOON:013:1,2017-08-19T17:18:00Z,27.4847,-97.3181,0.609,1111122 
TCOON,ioos:station:TCOON:013:1,2017-08-19T18:18:00Z,27.4847,-97.3181,0.612,1111122 
TCOON,ioos:station:TCOON:013:1,2017-08-19T19:18:00Z,27.4847,-97.3181,0.611,1111122 
TCOON,ioos:station:TCOON:013:1,2017-08-19T20:18:00Z,27.4847,-97.3181,0.61,1111122 
TCOON,ioos:station:TCOON:013:1,2017-08-19T21:18:00Z,27.4847,-97.3181,0.611,1111122 
TCOON,ioos:station:TCOON:013:1,2017-08-19T22:18:00Z,27.4847,-97.3181,0.607,1111122 
TCOON,ioos:station:TCOON:013:1,2017-08-19T23:18:00Z,27.4847,-97.3181,0.601,1111122 
TCOON,ioos:station:TCOON:013:1,2017-08-20T00:30:00Z,27.4847,-97.3181,0.6,1111122 
TCOON,ioos:station:TCOON:013:1,2017-08-20T01:18:00Z,27.4847,-97.3181,0.593,1111122 
TCOON,ioos:station:TCOON:013:1,2017-08-20T02:18:00Z,27.4847,-97.3181,0.585,1111122 
TCOON,ioos:station:TCOON:013:1,2017-08-20T03:18:00Z,27.4847,-97.3181,0.581,1111122 
TCOON,ioos:station:TCOON:013:1,2017-08-20T04:18:00Z,27.4847,-97.3181,0.576,1111122 
TCOON,ioos:station:TCOON:013:1,2017-08-20T05:18:00Z,27.4847,-97.3181,0.575,1111122 
TCOON,ioos:station:TCOON:013:1,2017-08-20T06:18:00Z,27.4847,-97.3181,0.574,1111122 
TCOON,ioos:station:TCOON:013:1,2017-08-20T07:18:00Z,27.4847,-97.3181,0.572,1111122 
TCOON,ioos:station:TCOON:013:1,2017-08-20T08:18:00Z,27.4847,-97.3181,0.57,1111122 
TCOON,ioos:station:TCOON:013:1,2017-08-20T09:18:00Z,27.4847,-97.3181,0.568,1111122 
TCOON,ioos:station:TCOON:013:1,2017-08-20T10:18:00Z,27.4847,-97.3181,0.568,1111122 
TCOON,ioos:station:TCOON:013:1,2017-08-20T11:18:00Z,27.4847,-97.3181,0.569,1111122 
TCOON,ioos:station:TCOON:013:1,2017-08-20T12:18:00Z,27.4847,-97.3181,0.569,1111122 
TCOON,ioos:station:TCOON:013:1,2017-08-20T13:18:00Z,27.4847,-97.3181,0.573,1111122 
TCOON,ioos:station:TCOON:013:1,2017-08-20T14:18:00Z,27.4847,-97.3181,0.579,1111122 
TCOON,ioos:station:TCOON:013:1,2017-08-20T15:18:00Z,27.4847,-97.3181,0.588,1111122 
TCOON,ioos:station:TCOON:013:1,2017-08-20T16:18:00Z,27.4847,-97.3181,0.597,1111122 
TCOON,ioos:station:TCOON:013:1,2017-08-20T17:18:00Z,27.4847,-97.3181,0.607,1111122 
TCOON,ioos:station:TCOON:013:1,2017-08-20T18:18:00Z,27.4847,-97.3181,0.612,1111122 
TCOON,ioos:station:TCOON:013:1,2017-08-20T19:18:00Z,27.4847,-97.3181,0.614,1111122 
TCOON,ioos:station:TCOON:013:1,2017-08-20T20:18:00Z,27.4847,-97.3181,0.614,1111122 
TCOON,ioos:station:TCOON:013:1,2017-08-20T21:18:00Z,27.4847,-97.3181,0.613,1111122 
TCOON,ioos:station:TCOON:013:1,2017-08-20T22:18:00Z,27.4847,-97.3181,0.61,1111122 
TCOON,ioos:station:TCOON:013:1,2017-08-20T23:18:00Z,27.4847,-97.3181,0.613,1111122 
TCOON,ioos:station:TCOON:013:1,2017-08-21T00:18:00Z,27.4847,-97.3181,0.613,1111122 
TCOON,ioos:station:TCOON:013:1,2017-08-21T01:18:00Z,27.4847,-97.3181,0.614,1111122 
TCOON,ioos:station:TCOON:013:1,2017-08-21T02:18:00Z,27.4847,-97.3181,0.611,1111122 
TCOON,ioos:station:TCOON:013:1,2017-08-21T03:18:00Z,27.4847,-97.3181,0.606,1111122 
TCOON,ioos:station:TCOON:013:1,2017-08-21T04:18:00Z,27.4847,-97.3181,0.601,1111122 
TCOON,ioos:station:TCOON:013:1,2017-08-21T05:18:00Z,27.4847,-97.3181,0.597,1111122 
TCOON,ioos:station:TCOON:013:1,2017-08-21T06:18:00Z,27.4847,-97.3181,0.593,1111122 
TCOON,ioos:station:TCOON:013:1,2017-08-21T07:18:00Z,27.4847,-97.3181,0.591,1111122 
TCOON,ioos:station:TCOON:013:1,2017-08-21T08:18:00Z,27.4847,-97.3181,0.589,1111122 
TCOON,ioos:station:TCOON:013:1,2017-08-21T09:18:00Z,27.4847,-97.3181,0.588,1111122 
TCOON,ioos:station:TCOON:013:1,2017-08-21T10:18:00Z,27.4847,-97.3181,0.587,1111122 
TCOON,ioos:station:TCOON:013:1,2017-08-21T11:18:00Z,27.4847,-97.3181,0.587,1111122 
TCOON,ioos:station:TCOON:013:1,2017-08-21T12:18:00Z,27.4847,-97.3181,0.588,1111122 
TCOON,ioos:station:TCOON:013:1,2017-08-21T13:18:00Z,27.4847,-97.3181,0.594,1111122 
TCOON,ioos:station:TCOON:013:1,2017-08-21T14:18:00Z,27.4847,-97.3181,0.599,1111122 
TCOON,ioos:station:TCOON:013:1,2017-08-21T15:18:00Z,27.4847,-97.3181,0.609,1111122 
TCOON,ioos:station:TCOON:013:1,2017-08-21T16:18:00Z,27.4847,-97.3181,0.617,1111122 
TCOON,ioos:station:TCOON:013:1,2017-08-21T17:24:00Z,27.4847,-97.3181,0.625,1111122 
TCOON,ioos:station:TCOON:013:1,2017-08-21T18:24:00Z,27.4847,-97.3181,0.628,1111122 
TCOON,ioos:station:TCOON:013:1,2017-08-21T19:24:00Z,27.4847,-97.3181,0.629,1111122 
TCOON,ioos:station:TCOON:013:1,2017-08-21T20:18:00Z,27.4847,-97.3181,0.628,1111122 
TCOON,ioos:station:TCOON:013:1,2017-08-21T21:18:00Z,27.4847,-97.3181,0.631,1111122 
TCOON,ioos:station:TCOON:013:1,2017-08-21T22:18:00Z,27.4847,-97.3181,0.631,1111122 
TCOON,ioos:station:TCOON:013:1,2017-08-21T23:18:00Z,27.4847,-97.3181,0.636,1111122 
TCOON,ioos:station:TCOON:013:1,2017-08-22T00:18:00Z,27.4847,-97.3181,0.64,1111122 
TCOON,ioos:station:TCOON:013:1,2017-08-22T01:18:00Z,27.4847,-97.3181,0.636,1111122 
TCOON,ioos:station:TCOON:013:1,2017-08-22T02:18:00Z,27.4847,-97.3181,0.637,1111122 